[[{"header":{"parameterUnit":"m.s-1","parameterCategory":1,"la1":30.2991,"la2":30.254,"lo1":-89.0895,"lo2":-89.0444,"dy":0.0017,"dx":0.0017,"nx":28,"ny":28,"refTime":"2024-05-27T09:00:00:Z","depth":0,"parameterNumber":2,"parameterNumberName":"U-component_of_WINDS"},"data":[0,0,0,0,0,0,0,0,0,0,0,0,0,0,0,0,0,0,0,0,0,0,0,0,0,0,0,0,0,0,0,0,0,0,0,0,0,0,0,0,0,0,0,0,0,0,0,0,0,0,0,0,0,0,0,0,0,0,0.4081,0.4083,0,0.4203,0.4204,0.4206,0.424,0.424,0.4239,0.4238,0.4364,0.4368,0.4372,0,0,0,0,0,0,0,0,0,0,0,0,0,0.388,0.3883,0.4081,0.4083,0.4084,0.4203,0.4204,0.4206,0.424,0.4239,0.4239,0.4238,0.4363,0.4368,0.4373,0,0,0,0,0,0,0,0,0,0,0,0,0,0.3981,0.3884,0.4081,0.4116,0.412,0.4202,0.4205,0.4207,0.424,0.4239,0.4238,0.4237,0.4361,0.4367,0.4373,0.4431,0,0,0.4391,0.4394,0,0,0,0,0,0,0,0,0.3975,0.3988,0.4109,0.4113,0.4118,0.4205,0.418,0.4282,0.4241,0.4195,0.4238,0.4237,0.4312,0.4322,0.4347,0.4436,0.4442,0.4392,0.4396,0.4398,0.44,0,0,0,0,0,0,0,0.3968,0.3983,0.413,0.4111,0.4117,0.4125,0.4139,0.4199,0.4258,0.4199,0.4201,0.4215,0.4315,0.4342,0.4351,0.4444,0.4392,0.4397,0.4401,0.4403,0.4585,0.4587,0,0,0,0,0,0,0.3955,0.3977,0.4126,0.4133,0.4043,0.413,0.4145,0.4179,0.4257,0.4268,0.4216,0.4216,0.4332,0.4344,0.4355,0.4427,0.4398,0.4404,0.4407,0.4584,0.4586,0.4587,0,0,0,0,0,0,0.395,0.3968,0.4121,0.4056,0.4076,0.4134,0.4172,0.4181,0.4208,0.427,0.4281,0.4233,0.4332,0.4347,0.4411,0.4432,0.4406,0.4412,0.4583,0.4585,0.4586,0.4571,0,0,0,0,0,0,0.3945,0.3966,0.3988,0.4056,0.4079,0.4174,0.4173,0.4185,0.4218,0.422,0.4289,0.4299,0.4332,0.4402,0.4417,0.444,0.4417,0.4581,0.4584,0.4586,0.457,0.4572,0.4574,0,0,0,0,0,0.3937,0.3979,0.3989,0.4007,0.4108,0.4175,0.4189,0.4225,0.422,0.4243,0.4282,0.4297,0.4427,0.4408,0.4426,0.445,0.458,0.4583,0.4586,0.4569,0.4572,0.4574,0,0,0,0,0,0,0.3913,0.3989,0.4001,0.4066,0.4114,0.4181,0.4211,0.4227,0.4278,0.4277,0.4321,0.4336,0.4397,0.4431,0.4408,0.451,0.4504,0.451,0.4486,0.4489,0.4491,0.4481,0.4422,0,0,0,0,0,0.3915,0.3963,0.4027,0.4079,0.4102,0.4152,0.4183,0.4207,0.4258,0.4279,0.4324,0.4373,0.4426,0.4459,0.4511,0.4575,0.4591,0.4601,0.4603,0.4604,0.4609,0.4645,0.465,0.4596,0.4596,0.4596,0,0,0.392,0.3968,0.3995,0.4075,0.4115,0.4164,0.4169,0.4221,0.4257,0.4287,0.435,0.4385,0.4443,0.4508,0.4539,0.4537,0.4627,0.4608,0.4608,0.4613,0.4649,0.4654,0.4658,0.4598,0.4598,0.4598,0,0,0.3954,0.3995,0.4042,0.4082,0.4142,0.4175,0.4186,0.4251,0.4275,0.4339,0.4362,0.4407,0.4496,0.4537,0.4569,0.4618,0.4633,0.4634,0.4644,0.4679,0.4683,0.4687,0.4704,0.471,0.4639,0.4639,0.4639,0,0.3953,0.4027,0.4065,0.4115,0.4149,0.4178,0.4226,0.4263,0.4337,0.436,0.4357,0.4469,0.4511,0.4585,0.4597,0.4622,0.4637,0.4626,0.468,0.4684,0.4688,0.4705,0.4711,0.4638,0.4638,0.4638,0.4638,0,0.4022,0.4073,0.4104,0.4174,0.4212,0.4261,0.4306,0.434,0.4361,0.4394,0.4459,0.451,0.4572,0.4591,0.4612,0.4668,0.4666,0.4671,0.4666,0.4692,0.4709,0.4716,0.4638,0.4638,0.4638,0.4638,0,0,0.4044,0.4134,0.4145,0.4177,0.4245,0.4285,0.4336,0.4396,0.4424,0.4474,0.4517,0.4592,0.4597,0.4633,0.4659,0.469,0.4725,0.4691,0.4693,0.4695,0.479,0.4785,0.4791,0.4735,0.4737,0.4738,0.4784,0,0.4086,0.4176,0.4212,0.4285,0.4333,0.4361,0.4404,0.4451,0.4484,0.4529,0.4565,0.4617,0.462,0.4642,0.4674,0.4714,0.4744,0.4711,0.4776,0.4778,0.476,0.48,0.4795,0.4837,0.4791,0.4792,0.4793,0,0.4147,0.4197,0.4275,0.4338,0.4359,0.4398,0.4455,0.4498,0.4552,0.4573,0.4614,0.4638,0.4692,0.4684,0.4759,0.4735,0.4764,0.4787,0.479,0.4797,0.4787,0.4808,0.4851,0.4857,0.4804,0.4803,0.4802,0,0.4155,0.4242,0.4299,0.4326,0.44,0.4427,0.4459,0.4512,0.4545,0.4596,0.4618,0.4675,0.4706,0.4749,0.4788,0.4778,0.4859,0.4854,0.4878,0.4877,0.4894,0.4892,0.4941,0.4913,0.4913,0.4913,0.4913,0,0.4198,0.4244,0.4304,0.4339,0.4392,0.4432,0.4484,0.4518,0.4565,0.4607,0.4635,0.4675,0.4724,0.477,0.48,0.4857,0.4871,0.489,0.4898,0.4888,0.4885,0.4907,0.4905,0.4914,0.4914,0.4914,0.4913,0,0.4214,0.4256,0.4321,0.4386,0.4403,0.4439,0.4495,0.453,0.4564,0.4618,0.4633,0.4686,0.4742,0.4785,0.4857,0.4878,0.4938,0.4947,0.492,0.4923,0.4945,0.4942,0.501,0.502,0.4985,0.4985,0.4985,0,0.4239,0.4275,0.4344,0.4374,0.4406,0.4455,0.4489,0.453,0.4565,0.4629,0.4656,0.4714,0.4762,0.485,0.4895,0.4951,0.496,0.498,0.4969,0.4957,0.496,0.4957,0.4961,0.4981,0.4981,0.4982,0.4982,0,0.4277,0.4296,0.4344,0.44,0.444,0.4486,0.4532,0.4556,0.4605,0.4643,0.47,0.4737,0.481,0.4867,0.4927,0.4961,0.498,0.4985,0.4993,0.4983,0.4966,0.4975,0.4923,0.4983,0.4983,0.4983,0.4983,0.4983,0.4298,0.4332,0.4385,0.4438,0.4477,0.452,0.4556,0.4594,0.4642,0.4705,0.4726,0.4785,0.4838,0.492,0.4955,0.5001,0.5002,0.5014,0.5017,0.502,0.5018,0.4958,0.5012,0.5012,0.5012,0.5012,0.5012,0,0.4338,0.4373,0.4421,0.4485,0.4527,0.454,0.4592,0.4626,0.4677,0.4725,0.4771,0.4836,0.4891,0.4941,0.4998,0.5026,0.5036,0.504,0.5038,0.5045,0.5015,0.5001,0.5031,0.5031,0.5031,0.5031,0.5031,0.5031,0.4363,0.442,0.4445,0.4522,0.4557,0.4614,0.4643,0.4682,0.472,0.4792,0.4837,0.4869,0.4918,0.4979,0.503,0.5043,0.5063,0.5064,0.5079,0.505,0.5047,0.5045,0.5033,0.5068,0.5068,0.5106,0.5107,0.5107]},{"header":{"parameterUnit":"m.s-1","parameterCategory":1,"la1":30.2991,"la2":30.254,"lo1":-89.0895,"lo2":-89.0444,"dy":0.0017,"dx":0.0017,"nx":28,"ny":28,"refTime":"2024-05-27T09:00:00:Z","depth":0,"parameterNumber":3,"parameterNumberName":"V-component_of_WINDS"},"data":[0,0,0,0,0,0,0,0,0,0,0,0,0,0,0,0,0,0,0,0,0,0,0,0,0,0,0,0,0,0,0,0,0,0,0,0,0,0,0,0,0,0,0,0,0,0,0,0,0,0,0,0,0,0,0,0,0,0,2.6637,2.6636,0,2.6568,2.6567,2.6566,2.6479,2.6478,2.6477,2.6475,2.6404,2.6403,2.6402,0,0,0,0,0,0,0,0,0,0,0,0,0,2.6692,2.6692,2.6637,2.6636,2.6635,2.6568,2.6567,2.6566,2.648,2.6478,2.6476,2.6475,2.6404,2.6403,2.6402,0,0,0,0,0,0,0,0,0,0,0,0,0,2.665,2.6692,2.6637,2.6584,2.6578,2.6568,2.6567,2.6565,2.648,2.6478,2.6476,2.6474,2.6404,2.6403,2.6402,2.6438,0,0,2.6399,2.6399,0,0,0,0,0,0,0,0,2.6653,2.6648,2.6593,2.6587,2.6581,2.653,2.656,2.6523,2.648,2.6517,2.6475,2.6473,2.6447,2.6443,2.6434,2.6434,2.6431,2.6399,2.6399,2.6398,2.6398,0,0,0,0,0,0,0,2.6656,2.6651,2.6609,2.6592,2.6585,2.6563,2.6555,2.6552,2.6495,2.6514,2.6507,2.6501,2.6444,2.6435,2.6432,2.643,2.6399,2.6398,2.6398,2.6397,2.6454,2.6456,0,0,0,0,0,0,2.6667,2.6654,2.6611,2.6607,2.6613,2.6564,2.6554,2.6549,2.6494,2.6484,2.6502,2.6497,2.6438,2.6433,2.6429,2.6466,2.6398,2.6397,2.6397,2.6452,2.6455,2.6457,0,0,0,0,0,0,2.6668,2.6664,2.6614,2.6629,2.6621,2.6565,2.6559,2.6548,2.654,2.6486,2.6475,2.6504,2.6436,2.643,2.6436,2.6463,2.6397,2.6396,2.645,2.6453,2.6456,2.6542,0,0,0,0,0,0,2.667,2.6665,2.6678,2.663,2.662,2.6623,2.6561,2.6548,2.6538,2.653,2.6485,2.6475,2.6434,2.6438,2.6435,2.646,2.6395,2.6447,2.6451,2.6455,2.6536,2.6548,2.6557,0,0,0,0,0,2.6673,2.6705,2.668,2.6675,2.6636,2.6625,2.662,2.6572,2.6541,2.6554,2.6519,2.6477,2.646,2.6439,2.6435,2.646,2.6445,2.645,2.6455,2.6532,2.6545,2.6557,0,0,0,0,0,0,2.6759,2.6698,2.6669,2.6687,2.6662,2.661,2.6625,2.6588,2.6571,2.6564,2.6505,2.6495,2.6508,2.6484,2.6462,2.6491,2.6446,2.6451,2.6506,2.6519,2.6529,2.6534,2.6395,0,0,0,0,0,2.678,2.6776,2.6723,2.6744,2.6733,2.6682,2.6675,2.664,2.6612,2.6601,2.6566,2.654,2.6528,2.6522,2.6509,2.6532,2.6521,2.6548,2.6558,2.6567,2.6571,2.6581,2.6592,2.6473,2.6473,2.6472,0,0,2.6823,2.679,2.6791,2.6761,2.6737,2.6734,2.6673,2.6673,2.667,2.66,2.6604,2.6577,2.6544,2.6559,2.6563,2.6539,2.6601,2.6573,2.658,2.6579,2.6587,2.6598,2.6608,2.6476,2.6475,2.6475,0,0,2.6901,2.6876,2.689,2.6868,2.6833,2.6798,2.6802,2.6756,2.6736,2.6738,2.6685,2.668,2.6662,2.664,2.6627,2.6695,2.6656,2.6692,2.6747,2.6757,2.6766,2.6774,2.6798,2.6808,2.6697,2.6697,2.6697,0,2.696,2.6954,2.6902,2.6905,2.6893,2.6829,2.6843,2.6824,2.6786,2.6779,2.6753,2.6728,2.6701,2.6709,2.6726,2.6717,2.6719,2.6698,2.6769,2.6777,2.6783,2.6806,2.6815,2.6702,2.6701,2.6701,2.67,0,2.7027,2.7024,2.704,2.7005,2.6995,2.7003,2.6952,2.6947,2.6913,2.6881,2.6883,2.6849,2.6827,2.6826,2.6793,2.6829,2.6815,2.678,2.6734,2.68,2.682,2.6828,2.6709,2.6707,2.6705,2.6704,0,0,2.7158,2.7094,2.7101,2.7084,2.7041,2.7037,2.7042,2.702,2.7017,2.6993,2.6996,2.6981,2.6948,2.6933,2.6896,2.6905,2.6961,2.6868,2.6866,2.6886,2.6998,2.7025,2.7036,2.6934,2.6935,2.6936,2.7001,0,2.7228,2.7233,2.7187,2.7205,2.72,2.714,2.7144,2.7117,2.7087,2.7078,2.7044,2.7035,2.6992,2.6982,2.6988,2.6953,2.6982,2.6947,2.6935,2.6935,2.6946,2.7046,2.7075,2.7137,2.7008,2.7009,2.701,0,2.731,2.7291,2.7309,2.7263,2.726,2.7265,2.7241,2.7234,2.7202,2.7179,2.7162,2.7119,2.712,2.7076,2.7076,2.7053,2.7045,2.7026,2.7028,2.7025,2.6977,2.7046,2.7156,2.7166,2.7022,2.7021,2.702,0,2.7404,2.7382,2.739,2.7377,2.7325,2.7329,2.7307,2.7273,2.7263,2.7242,2.7235,2.7214,2.7203,2.7187,2.714,2.7113,2.7145,2.7097,2.7126,2.7127,2.7136,2.7136,2.7246,2.7131,2.713,2.713,2.713,0,2.7487,2.75,2.7431,2.7436,2.7448,2.7394,2.7407,2.7379,2.7349,2.7347,2.7293,2.7292,2.723,2.7221,2.7184,2.7189,2.7184,2.7165,2.7155,2.717,2.7173,2.7164,2.7159,2.7133,2.7132,2.7132,2.7131,0,2.7594,2.7548,2.7552,2.7502,2.7489,2.7501,2.7457,2.7459,2.7425,2.7423,2.7419,2.7366,2.7353,2.7304,2.7279,2.7254,2.7271,2.7252,2.7282,2.7276,2.7307,2.7305,2.7416,2.7427,2.7305,2.7306,2.7307,0,2.765,2.7658,2.7609,2.7604,2.7584,2.7577,2.7566,2.7512,2.7503,2.7467,2.7473,2.7455,2.7439,2.7421,2.7379,2.7359,2.7339,2.7379,2.7336,2.735,2.734,2.734,2.734,2.7389,2.7391,2.7392,2.7393,0,2.7754,2.7731,2.7718,2.7697,2.7686,2.7667,2.7644,2.7643,2.7582,2.7575,2.7561,2.7548,2.7523,2.7506,2.7479,2.7456,2.7414,2.7407,2.7412,2.7428,2.7445,2.7436,2.7308,2.7405,2.7404,2.7403,2.7402,2.7402,2.7837,2.7841,2.7807,2.7795,2.7772,2.7752,2.7751,2.7717,2.7705,2.768,2.7649,2.7639,2.7605,2.7565,2.7544,2.7535,2.7512,2.752,2.7522,2.7525,2.7533,2.7447,2.753,2.753,2.7529,2.7529,2.7529,0,2.7938,2.7913,2.7902,2.7872,2.7862,2.7824,2.7797,2.779,2.7783,2.7755,2.774,2.7723,2.7707,2.7663,2.7642,2.7643,2.7623,2.7639,2.7639,2.7634,2.7554,2.7552,2.7655,2.7655,2.7655,2.7655,2.7655,2.7655,2.799,2.7996,2.7968,2.7962,2.7936,2.7927,2.7914,2.7895,2.7873,2.7857,2.7843,2.7815,2.7781,2.7757,2.7739,2.7727,2.7721,2.7743,2.7725,2.7652,2.764,2.7628,2.7625,2.7743,2.7743,2.7805,2.7806,2.7806]}]]